Flag for United Kingdom Weather past 2 weeks in Colchester, England, United Kingdom

Now
39 °F

Passing clouds.


Feels Like: 32 °F
Forecast: 41 / 52 °F
Wind: 12 mph from West

Location: Luton Airport

Current Time: Mar 30, 2015 at 6:48:51 AM

Latest Report: Mar 30, 2015 at 6:20 AM


Visibility: N/A

Pressure: 29.68 "Hg

Humidity: 81%

Dew point: 34 °F

Location of ColchesterLocation

Historic Weather in Colchester — Graph

°F

Colchester temperature yesterday

Maximum temperature yesterday: 54 °F (at 12:50 PM)
Minimum temperature yesterday: 43 °F (at 11:20 PM)
Average temperature yesterday: 49 °F

Past Weeks' High & Low Weather Summary

 TemperatureHumidityPressure
High55 °F (Mar 28, 11:20 AM)100% (Mar 15, 4:20 AM)30.51 "Hg (Mar 15, 4:20 AM)
Low30 °F (Mar 23, 5:20 AM)46% (Mar 24, 4:20 PM)29.27 "Hg (Mar 29, 2:20 PM)
Average43 °F84%30.07 "Hg
* Reported Mar 15 4:20 AM — Mar 30 5:20 AM, Colchester, Weather by CustomWeather, © 2015

Note: Actual official high and low records may vary slightly from our data, if they occured in-between our weather recording intervals... More about our weather records

Advertising

Colchester weather history for previous 24 hours

 ConditionsComfort  
Time TempWeatherWind HumidityBarometerVisibility
5:20 AM
Mon, Mar 30
37 °FClear.10 mph93%29.65 "Hg10 mi
4:50 AM41 °FClear.13 mph81%29.65 "Hg10 mi
4:20 AM41 °FPassing clouds.16 mph81%29.62 "HgN/A
3:50 AM41 °FClear.16 mph81%29.62 "Hg10 mi
3:20 AM43 °FClear.16 mph76%29.59 "Hg10 mi
2:50 AM43 °FPassing clouds.20 mph76%29.59 "HgN/A
2:20 AM43 °FClear.24 mph76%29.59 "Hg10 mi
1:50 AM43 °FClear.21 mph76%29.56 "Hg10 mi
1:20 AM43 °FClear.20 mph81%29.53 "Hg10 mi
12:50 AM43 °FClear.16 mph81%29.56 "Hg10 mi
12:20 AM43 °FClear.18 mph81%29.53 "Hg10 mi
11:50 PM
Sun, Mar 29
43 °FClear.16 mph81%29.53 "Hg10 mi
11:20 PM43 °FClear.10 mph87%29.50 "Hg10 mi
10:50 PM45 °FRain. Passing clouds.20 mph81%29.50 "Hg6 mi
10:20 PM46 °FClear.16 mph76%29.50 "Hg10 mi
9:50 PM46 °FClear.17 mph76%29.50 "Hg10 mi
9:20 PM46 °FClear.22 mph76%29.47 "Hg10 mi
8:50 PM46 °FClear.24 mph76%29.47 "Hg10 mi
8:20 PM46 °FPassing clouds.23 mph76%29.47 "HgN/A
7:50 PM46 °FPassing clouds.22 mph82%29.45 "HgN/A
7:20 PM46 °FScattered clouds.23 mph82%29.45 "HgN/A
6:50 PM46 °FDrizzle. Broken clouds.29 mph87%29.45 "Hg5 mi
6:20 PM50 °FScattered clouds.28 mph67%29.42 "HgN/A
5:50 PM50 °FPartly sunny.24 mph67%29.42 "HgN/A
5:20 PM52 °FScattered showers. Scattered clouds.33 mph58%29.42 "HgN/A
4:50 PM52 °FScattered showers. Scattered clouds.38 mph67%29.39 "HgN/A
4:20 PM52 °FScattered showers. Scattered clouds.39 mph67%29.36 "HgN/A
3:50 PM54 °FScattered clouds.29 mph77%29.33 "HgN/A
3:20 PM50 °FSprinkles. Broken clouds.35 mph88%29.30 "HgN/A
2:50 PM54 °FBroken clouds.33 mph82%29.30 "HgN/A
2:20 PM54 °FMostly cloudy.36 mph82%29.27 "HgN/A
1:50 PM54 °FDrizzle. Partly sunny.35 mph88%29.30 "HgN/A
1:20 PM54 °FPartly sunny.37 mph88%29.30 "HgN/A
12:50 PM54 °FPartly sunny.36 mph88%29.30 "HgN/A
12:20 PM52 °FPartly sunny.33 mph94%29.33 "HgN/A
11:50 AM52 °FDrizzle. Partly sunny.31 mph94%29.33 "HgN/A
11:20 AM52 °FPartly sunny.31 mph94%29.36 "HgN/A
10:50 AM52 °FPartly sunny.29 mph94%29.39 "HgN/A
10:20 AM50 °FPartly sunny.23 mph100%29.42 "HgN/A
9:50 AM48 °FRain. Mostly cloudy.15 mph100%29.45 "HgN/A
9:20 AM46 °FRain. Partly sunny.14 mph100%29.47 "Hg6 mi
8:50 AM46 °FLight rain. Partly sunny.12 mph100%29.47 "Hg5 mi
8:20 AM46 °FRain. Partly sunny.13 mph93%29.50 "Hg4 mi
7:50 AM46 °FDrizzle. Partly sunny.14 mph93%29.53 "Hg4 mi
7:20 AM48 °FPassing clouds.17 mph82%29.53 "HgN/A
6:50 AM48 °FPassing clouds.18 mph82%29.56 "HgN/A
6:20 AM48 °FPassing clouds.21 mph82%29.56 "HgN/A
Weather by CustomWeather, © 2015

See weather overviewHow to use our weather pages